Ketchikan, AK

10:21 PM AKDT on September 22, 2018 (GMT -0800)
Ketchikan International

Weather History for PAKT - October, 2017

Change the Weather History Date:

Wednesday, October 25, 2017

  Actual Average Record
Temperature  
Mean Temperature 40 °F -  
Max Temperature 50 °F 50 °F 61 °F (1979)
Min Temperature 33 °F 38 °F 24 °F (1991)
Degree Days  
Heating Degree Days 24    
Moisture  
Dew Point 38 °F    
Average Humidity 85    
Maximum Humidity 100    
Minimum Humidity 66    
Precipitation  
Precipitation 0.00 in - - ()
Sea Level Pressure  
Sea Level Pressure 30.23 in    
Wind  
Wind Speed 6 mph (WNW)    
Max Wind Speed 13 mph    
Max Gust Speed 18 mph    
Visibility 10 miles    
Events      
Averages and records for this station are not official NWS values.
T = Trace of Precipitation, MM = Missing Value Source: NWS Daily Summary

Daily Weather History Graph

Daily Weather History Graph

Search for Another Location

Airport or City:

Astronomy

Oct. 25, 2017 Rise Set
Actual Time 7:38 AM AKDT 5:22 PM AKDT
Civil Twilight 7:00 AM AKDT 6:00 PM AKDT
Nautical Twilight 6:17 AM AKDT 6:43 PM AKDT
Astronomical Twilight 5:34 AM AKDT 7:25 PM AKDT
Moon 1:19 PM AKDT (10/25) 9:23 PM AKDT (10/25)
Length of Visible Light 11h 00m
Length of Day
9h 44m
Waxing Crescent, 31% of the Moon is Illuminated
Oct 25
Waxing Crescent
Oct 27
First Quarter
Nov 3
Full
Nov 10
Last Quarter
Nov 18
New

Hourly Weather History & Observations

Time (AKDT) Temp. Windchill Dew Point Humidity Pressure Visibility Wind Dir Wind Speed Gust Speed Precip Events Conditions
12:53 AM 44.1 °F 38.1 °F 39.0 °F 82% 29.90 in 10.0 mi WNW 11.5 mph - N/A   Overcast
1:14 AM 44.1 °F 37.7 °F 39.0 °F 82% 29.92 in 10.0 mi WNW 12.7 mph 18.4 mph N/A   Overcast
1:53 AM 45.0 °F 39.7 °F 39.0 °F 80% 29.97 in 10.0 mi NW 10.4 mph 18.4 mph N/A   Overcast
2:40 AM 44.1 °F 40.8 °F 39.9 °F 85% 30.01 in 10.0 mi WNW 5.8 mph - 0.00 in   Overcast
2:53 AM 44.1 °F 41.5 °F 39.9 °F 85% 30.02 in 10.0 mi NNW 4.6 mph - 0.00 in   Overcast
3:53 AM 44.1 °F 40.1 °F 37.9 °F 79% 30.05 in 10.0 mi NW 6.9 mph - N/A   Scattered Clouds
4:53 AM 41.0 °F 38.0 °F 37.0 °F 86% 30.09 in 10.0 mi NNW 4.6 mph - N/A   Clear
5:53 AM 39.0 °F 35.7 °F 37.0 °F 93% 30.14 in 10.0 mi West 4.6 mph - N/A   Clear
6:10 AM 39.9 °F 37.8 °F 37.0 °F 89% 30.15 in 10.0 mi West 3.5 mph - N/A   Clear
6:53 AM 37.4 °F - 35.6 °F 93% 30.19 in 10.0 mi Calm Calm - N/A   Clear
7:53 AM 33.8 °F - 33.8 °F 100% 30.21 in 10.0 mi Calm Calm - N/A   Partly Cloudy
8:53 AM 39.9 °F - 37.9 °F 93% 30.24 in 10.0 mi Calm Calm - N/A   Clear
9:53 AM 42.8 °F 40.1 °F 39.2 °F 87% 30.29 in 10.0 mi NNW 4.6 mph - N/A   Partly Cloudy
10:53 AM 46.4 °F 42.9 °F 37.4 °F 71% 30.30 in 10.0 mi NNW 6.9 mph - N/A   Partly Cloudy
11:53 AM 48.0 °F - 39.0 °F 71% 30.30 in 10.0 mi NNW 3.5 mph - N/A   Partly Cloudy
12:53 PM 48.9 °F - 37.9 °F 66% 30.30 in 10.0 mi East 4.6 mph - N/A   Clear
1:53 PM 48.9 °F - 37.9 °F 66% 30.32 in 10.0 mi SSE 4.6 mph - N/A   Clear
2:53 PM 48.0 °F - 41.0 °F 77% 30.34 in 10.0 mi NNW 6.9 mph - N/A   Clear
3:53 PM 46.0 °F 44.8 °F 39.9 °F 79% 30.37 in 10.0 mi WNW 3.5 mph - N/A   Clear
4:53 PM 42.8 °F - 39.2 °F 87% 30.39 in 10.0 mi Calm Calm - N/A   Partly Cloudy
5:53 PM 41.0 °F - 37.9 °F 89% 30.39 in 10.0 mi Calm Calm - N/A   Scattered Clouds
6:53 PM 41.0 °F 39.0 °F 39.0 °F 93% 30.36 in 10.0 mi South 3.5 mph - N/A   Clear
7:53 PM 41.0 °F 39.0 °F 39.0 °F 93% 30.35 in 10.0 mi SE 3.5 mph - N/A   Clear
8:53 PM 39.9 °F 37.8 °F 39.0 °F 97% 30.36 in 10.0 mi SE 3.5 mph - N/A   Clear
9:53 PM 39.0 °F 36.8 °F 37.9 °F 96% 30.37 in 10.0 mi WNW 3.5 mph - N/A   Clear
10:53 PM 39.0 °F - 37.0 °F 93% 30.39 in 10.0 mi Calm Calm - N/A   Clear
11:53 PM 37.0 °F 34.5 °F 36.0 °F 96% 30.38 in 10.0 mi West 3.5 mph - N/A   Clear